GFSNGP_prec_cthk_231.txt.gz
RH
44 52 54 54 52 48 49 50 54 49 43 47 48 48 51 51 50 49 53 55 52 53 56 54 54 53 55 57 58 60 63 65 66 68 70 69 70 73 76 75 72 79 69 60
58 61 59 55 52 53 52 52 44 45 37 46 46 47 46 50 51 54 56 52 57 57 57 55 53 54 58 61 63 64 66 69 72 76 76 76 76 72 81 71 78 72 60 63
75 74 71 63 59 56 50 49 50 45 32 48 45 43 46 48 55 56 54 56 54 54 54 54 55 55 56 60 66 65 69 72 75 76 78 79 76 78 74 80 73 63 64 57
91 92 90 45 48 54 55 47 46 40 41 51 44 44 46 49 49 47 52 53 56 56 56 56 56 56 55 56 59 67 72 74 77 78 81 81 81 76 79 75 68 65 53 47
98 96 69 53 55 54 56 47 50 47 43 45 50 48 48 49 47 50 50 52 53 53 53 52 51 54 57 57 58 66 68 70 75 78 78 76 76 77 74 70 64 56 53 49
98 98 83 49 48 56 62 44 50 47 42 46 51 51 50 51 53 52 53 51 50 51 50 52 55 56 58 59 61 65 68 72 73 75 74 73 72 73 69 68 65 58 53 49
97 97 70 51 53 66 66 41 47 51 53 53 52 53 54 53 54 53 51 51 52 54 55 59 59 60 60 60 63 64 68 72 75 74 73 72 73 73 72 69 65 57 52 50
95 99 81 51 54 65 48 55 57 55 58 56 55 55 59 58 58 55 55 54 58 61 60 64 64 64 64 64 67 69 73 74 74 73 71 72 74 77 75 67 61 57 51 48
83 70 54 55 61 64 62 66 65 63 63 62 59 62 64 61 59 60 57 57 60 64 67 70 67 68 69 69 70 71 70 68 69 71 73 74 73 75 67 66 61 53 52 49
86 69 69 65 67 68 72 71 68 73 72 69 65 68 66 69 65 67 70 70 69 72 74 77 73 71 74 74 72 70 72 75 76 76 75 75 74 68 67 63 57 54 53 47
82 84 84 79 83 82 86 86 85 84 77 75 76 78 78 77 81 80 80 80 81 82 79 81 82 82 81 74 75 79 81 83 83 84 85 80 72 68 66 63 59 55 54 52
95 97 98 96 94 93 92 92 92 91 92 91 93 92 91 90 87 84 82 75 80 85 86 86 82 79 78 78 79 82 87 87 88 84 76 74 73 66 64 62 58 57 55 55
84 86 86 85 88 86 88 93 90 90 94 94 91 87 84 84 80 75 76 80 85 87 88 85 84 84 84 81 84 89 91 87 83 78 73 73 68 63 59 58 57 58 57 63
77 88 78 72 75 80 87 86 85 84 87 86 86 84 82 82 80 81 81 83 88 91 90 88 87 85 85 88 93 91 87 82 77 74 73 69 63 61 56 57 60 52 56 69
72 86 74 64 72 72 75 77 77 78 82 82 81 83 83 81 84 86 88 88 87 89 93 92 95 93 94 93 91 86 84 81 78 76 71 64 60 55 55 57 54 57 65 78
69 74 65 62 65 74 78 82 83 83 87 84 81 81 83 88 91 92 91 91 92 94 96 96 97 95 91 88 84 84 81 79 72 66 62 58 56 57 53 50 52 58 68 85
66 73 74 72 73 74 73 76 81 80 82 88 86 86 89 91 96 97 96 96 98 98 97 97 93 91 90 85 83 82 76 71 67 63 60 59 61 59 53 55 56 59 63 69
64 71 72 68 72 74 75 76 74 74 74 77 78 82 84 85 88 92 98 98 97 97 96 94 90 86 84 80 77 74 71 68 66 64 63 63 60 54 54 54 55 58 62 64
56 61 63 62 63 63 66 70 74 77 80 83 83 83 82 83 87 89 91 94 93 91 88 82 79 77 75 73 71 67 65 66 67 65 61 58 59 59 59 58 59 60 59 59
58 59 61 62 63 68 73 77 81 84 81 83 83 84 88 91 91 84 81 79 79 78 74 72 69 72 70 69 66 69 68 65 61 60 61 63 66 69 69 67 67 68 67 64
78 82 83 80 83 85 88 94 97 96 95 94 92 89 83 76 70 66 65 70 72 67 66 65 64 65 66 65 62 61 56 52 51 52 53 59 61 63 65 68 71 73 74 74
91 94 96 96 96 95 95 94 92 90 89 87 82 78 75 73 71 70 69 68 70 65 64 65 66 61 60 57 54 51 47 45 42 41 40 45 50 52 54 58 61 67 72 75
93 90 84 81 81 81 79 78 77 75 71 68 65 63 61 58 56 54 54 52 52 49 50 53 52 51 49 46 43 42 43 42 41 41 43 43 44 49 54 55 56 59 62 66
82 79 75 70 67 64 61 56 52 48 45 44 43 43 47 52 54 54 53 50 47 38 33 31 29 28 29 32 36 38 42 45 46 49 51 54 56 58 58 59 60 61 62 65
63 60 58 54 53 50 49 49 51 56 60 62 56 46 36 34 34 34 31 31 30 30 29 29 28 26 25 28 32 37 40 44 48 50 50 50 51 53 57 62 63 64 65 66
56 56 56 56 57 60 63 65 64 55 40 39 39 37 34 33 33 32 32 32 33 32 33 32 31 32 34 35 38 43 47 50 54 55 54 55 56 58 58 60 63 68 72 73
60 64 64 63 65 65 57 46 39 38 37 35 42 40 39 36 36 37 38 38 39 40 39 38 39 40 41 45 49 55 57 62 63 61 61 60 61 63 66 68 69 70 72 74

GFSNGP_prec_cthk_234.txt.gz
RH
27 26 28 31 33 37 43 43 51 44 42 47 48 44 46 50 48 46 48 51 49 48 49 49 50 50 51 54 52 54 58 64 65 66 68 70 76 76 76 75 75 76 80 89
36 33 36 36 37 46 49 44 41 42 35 43 43 49 47 45 47 48 49 50 49 53 55 55 52 52 51 52 55 56 57 61 64 65 69 74 75 77 77 74 77 81 92 87
47 47 52 51 45 44 45 46 47 43 33 46 48 49 44 45 47 48 51 52 54 54 51 52 52 52 52 54 56 58 61 62 64 67 71 74 79 81 77 77 82 93 88 82
62 74 84 34 39 48 52 46 47 44 48 49 44 44 46 46 48 47 47 49 51 53 51 50 49 49 51 52 53 55 61 63 65 69 74 79 84 81 77 83 92 87 80 77
86 83 65 49 57 57 55 50 55 51 49 48 49 49 49 49 48 49 46 46 46 47 50 51 52 52 51 50 52 57 63 65 67 68 77 81 78 79 80 85 85 77 75 72
93 95 82 48 53 58 61 56 53 56 56 57 57 56 53 56 57 55 54 54 51 52 50 48 49 48 48 51 56 58 63 67 69 70 75 76 77 82 84 81 78 77 75 70
95 97 70 54 59 67 72 59 60 60 63 66 66 64 61 61 58 56 58 58 57 59 55 51 54 57 56 58 62 63 65 68 69 71 77 80 83 83 80 80 78 76 73 70
96 98 80 59 59 70 60 65 64 64 64 67 71 68 64 65 64 59 57 59 63 66 64 61 61 62 64 68 72 70 70 71 74 78 83 82 81 78 79 81 80 79 75 70
88 75 68 69 73 72 72 71 74 72 65 63 64 63 74 71 74 65 63 67 65 69 66 67 70 71 66 69 75 75 75 79 82 84 82 76 75 78 81 81 80 78 75 70
91 71 73 75 77 82 82 79 80 82 74 74 69 67 67 73 73 68 69 68 69 72 70 72 77 81 76 79 80 78 81 84 81 78 78 80 81 82 83 84 79 79 72 67
87 81 85 87 84 85 81 77 81 90 87 83 83 84 81 87 83 85 86 83 81 85 82 82 86 79 76 80 83 81 79 80 83 83 85 85 86 87 79 78 80 75 70 68
97 93 89 77 80 77 75 76 80 81 84 92 90 94 95 95 95 95 95 96 86 84 86 82 84 86 84 89 87 86 84 85 87 91 93 93 88 85 82 78 74 73 69 66
78 76 72 64 73 77 75 75 78 84 83 78 84 90 89 87 89 87 87 92 86 86 87 89 92 91 93 90 86 85 86 89 91 96 93 87 85 86 81 81 77 73 67 66
65 68 62 64 68 74 79 77 78 80 80 81 85 88 84 85 86 88 88 90 88 87 89 95 95 95 91 87 90 92 95 97 96 92 86 82 83 85 83 80 74 68 67 61
51 54 54 54 60 62 66 64 67 71 75 80 81 81 82 83 85 86 88 90 93 94 97 99 98 98 96 97 98 98 96 95 92 85 80 82 84 82 77 73 67 63 63 64
54 55 52 50 50 53 54 60 64 68 75 76 79 79 79 81 85 89 92 95 97 97 98 98 98 98 98 98 97 98 97 92 91 87 87 81 79 76 73 68 60 63 65 66
47 48 52 52 55 59 64 62 71 74 73 72 72 74 76 77 79 80 84 93 96 98 98 97 97 97 97 98 98 97 93 89 87 83 81 79 79 76 70 64 65 65 66 62
38 40 42 44 47 50 53 58 60 65 67 68 70 73 75 77 80 82 86 88 89 92 94 96 97 96 95 93 92 89 87 85 82 80 78 77 75 71 68 67 68 68 63 62
49 50 51 52 55 58 60 61 63 66 70 72 75 77 79 80 85 87 88 89 88 90 91 91 89 84 79 80 80 79 78 77 75 73 70 69 70 70 70 66 61 64 65 63
51 54 56 57 62 66 69 69 67 70 74 80 84 93 94 95 95 90 85 83 83 82 78 74 70 73 75 74 75 75 74 75 74 71 68 69 68 68 67 69 69 71 70 70
63 66 68 72 78 84 87 89 87 86 88 90 91 89 84 77 74 71 74 80 79 79 77 74 74 72 72 71 73 72 71 70 68 63 60 59 58 61 68 69 70 72 72 73
74 79 82 84 85 90 91 91 88 85 82 81 79 76 75 75 72 70 68 64 61 57 56 58 55 55 56 58 57 56 53 51 48 48 46 45 45 49 53 56 59 63 63 66
77 74 72 72 69 66 67 68 68 66 59 54 50 46 46 47 50 55 59 60 59 57 55 54 52 50 49 48 48 48 48 47 50 46 44 44 43 43 43 45 49 53 57 60
72 66 61 58 52 51 50 48 46 45 45 47 49 53 54 55 49 45 40 39 40 35 31 30 28 26 24 23 22 26 27 34 39 38 40 42 46 50 55 60 61 61 62 62
64 57 55 54 54 53 53 52 55 57 59 60 54 45 33 31 31 32 32 32 33 32 33 34 32 28 30 32 33 38 45 43 42 46 47 48 48 49 51 53 56 59 62 65
56 58 59 59 61 60 58 58 61 57 48 44 43 41 37 34 35 38 39 39 38 38 38 37 37 38 37 37 37 38 40 44 48 52 55 55 54 53 55 57 60 62 63 64
60 61 64 62 58 59 58 54 48 44 36 33 40 40 36 38 40 40 40 39 39 40 41 41 42 42 42 43 46 49 54 56 60 63 64 62 61 60 61 62 63 66 68 69

GFSNGP_prec_cthk_237.txt.gz
RH
29 30 30 30 29 27 28 29 37 34 35 34 35 40 45 45 46 44 46 48 50 49 47 46 44 44 44 46 48 51 53 54 54 55 58 63 66 70 73 78 83 86 85 78
34 33 33 32 27 29 28 28 31 31 30 32 38 41 40 42 44 47 50 51 49 49 48 47 48 48 48 49 52 53 56 57 58 57 61 65 67 71 76 81 87 91 83 80
44 40 43 39 32 30 31 36 37 40 35 43 43 44 44 47 49 49 49 50 52 54 55 53 53 54 56 58 58 57 62 60 57 58 59 61 67 72 76 81 88 86 82 84
53 58 69 32 30 35 41 42 47 49 48 51 50 50 50 53 52 49 51 54 53 54 56 55 54 55 56 59 60 62 60 56 54 56 59 64 70 76 80 84 86 87 87 87
68 70 49 37 39 42 51 42 47 53 58 56 57 58 55 58 59 56 53 51 50 52 53 53 55 57 58 58 57 57 53 53 55 59 65 71 73 77 82 86 88 89 88 91
79 84 67 34 45 47 67 65 67 61 68 73 74 73 67 62 57 55 54 57 58 58 57 56 56 56 55 53 54 55 58 60 61 63 68 73 76 80 81 86 86 87 90 84
69 78 58 48 54 61 74 65 74 79 80 75 76 77 73 69 66 62 59 60 61 65 64 64 64 57 55 55 58 61 63 65 65 70 73 77 79 81 83 85 90 90 82 86
80 90 78 54 64 73 75 78 79 77 76 77 78 74 71 71 76 71 70 64 56 67 65 62 67 65 65 65 68 71 73 74 70 77 78 79 79 82 84 88 87 82 87 90
82 75 69 73 86 93 88 87 83 85 82 81 81 81 78 72 80 76 70 65 70 74 70 74 79 75 70 74 77 79 77 79 80 75 78 80 83 89 91 87 85 89 91 92
95 83 87 92 90 90 89 84 81 78 77 73 73 81 77 73 74 83 87 83 78 87 87 87 85 84 86 88 89 89 90 87 84 83 88 91 92 89 87 90 91 94 88 88
96 95 95 93 92 88 84 82 80 78 73 69 69 70 69 71 72 77 83 91 84 89 92 89 92 91 91 89 89 93 89 91 89 90 92 91 86 90 93 95 92 88 88 87
98 93 93 89 82 79 79 77 74 71 70 67 66 65 65 65 70 70 73 78 77 90 92 88 86 87 88 88 89 95 94 93 93 91 91 90 95 95 98 96 89 85 83 82
81 77 74 72 70 68 71 71 71 71 68 68 66 67 70 72 69 69 70 72 77 85 89 87 89 91 91 95 95 95 96 96 96 96 98 98 98 98 96 91 87 85 88 88
65 64 63 62 61 63 62 61 64 63 62 63 65 67 69 72 75 75 70 67 68 74 82 89 92 95 97 97 98 97 98 98 98 98 97 97 98 95 91 86 87 91 89 88
54 53 52 52 54 54 56 57 55 55 53 54 54 60 66 65 61 60 59 59 65 71 78 85 89 93 97 98 98 98 97 98 97 97 98 97 94 92 92 92 89 87 85 86
49 47 47 49 50 52 51 56 57 60 62 61 60 63 60 56 55 59 65 67 73 78 84 92 95 98 98 98 98 98 98 98 98 97 98 96 95 93 90 88 88 85 86 83
46 42 40 40 40 40 41 41 41 44 48 51 54 55 56 56 60 65 67 71 75 79 84 90 93 97 97 99 98 97 98 98 97 96 95 92 91 91 89 89 88 85 80 77
43 41 38 37 37 38 42 45 48 52 54 56 57 58 59 63 66 69 73 76 78 80 85 87 88 89 89 90 92 93 93 91 89 89 89 88 87 87 86 85 84 81 78 80
38 39 41 41 42 45 48 51 53 56 59 61 60 63 67 73 77 77 78 80 82 86 85 84 85 86 88 87 86 83 78 76 77 76 75 76 78 80 79 77 77 76 76 76
41 43 44 45 47 53 58 62 67 71 73 73 75 75 73 72 72 70 72 73 73 74 74 73 72 72 72 74 78 79 78 80 80 78 76 74 73 73 78 81 78 76 74 75
46 50 55 59 65 70 74 75 76 78 80 80 76 72 69 68 66 65 62 60 58 58 58 56 55 55 56 57 59 60 61 62 62 63 64 64 65 65 67 70 76 76 75 78
63 68 70 68 68 68 67 67 64 64 64 61 57 54 51 47 46 46 50 55 59 61 60 57 56 55 55 56 59 61 61 61 60 55 51 45 41 39 41 45 51 56 63 70
67 68 64 62 60 52 48 47 47 44 42 42 43 45 48 55 56 55 52 46 41 40 39 38 36 32 28 25 25 28 31 33 36 38 41 42 42 46 46 44 43 45 50 54
63 66 62 53 48 47 47 47 47 47 47 48 51 50 45 37 30 31 33 34 33 32 33 34 33 32 31 29 27 27 28 30 33 39 42 39 39 41 40 44 49 58 60 61
62 57 53 52 52 52 53 53 52 53 56 53 47 40 34 30 29 29 31 34 36 36 36 35 34 36 35 37 37 40 41 45 45 45 43 46 47 48 48 49 51 54 56 58
56 56 57 56 57 58 54 53 55 55 48 43 39 36 34 33 32 35 36 35 34 34 34 35 37 40 38 37 39 40 40 43 45 48 52 55 56 56 55 55 55 56 57 59
56 57 57 58 58 55 55 54 52 42 37 34 34 33 32 32 33 34 34 35 35 37 38 40 42 44 45 47 48 50 53 56 57 59 61 63 63 62 61 60 60 61 63 65

GFSNGP_prec_cthk_240.txt.gz
RH
34 32 31 29 27 27 29 33 37 29 30 27 24 25 27 30 29 33 39 39 42 49 51 53 54 54 52 51 52 53 50 48 49 51 52 55 56 53 53 58 61 65 66 68
40 38 36 36 32 30 28 27 31 28 26 23 25 28 31 37 46 45 45 43 45 44 44 45 47 48 48 47 49 53 52 51 55 58 60 59 58 56 57 60 65 69 72 77
48 46 47 44 38 35 33 33 30 31 26 28 29 34 44 51 50 53 52 49 48 47 46 48 48 48 48 51 52 54 55 58 61 63 62 63 61 60 63 67 71 73 79 82
66 57 61 34 30 31 36 35 34 34 33 35 40 44 47 56 58 58 56 54 54 53 52 51 51 52 53 55 56 58 60 62 62 63 59 61 63 66 68 72 74 79 84 86
72 70 46 38 38 37 40 38 37 41 41 46 50 55 61 62 62 64 61 59 57 57 56 56 56 57 58 57 56 56 56 56 58 57 56 58 62 65 69 74 79 89 90 86
77 80 63 39 38 40 47 49 50 55 59 58 64 71 75 66 64 67 67 65 61 58 61 65 66 60 58 64 71 71 72 66 64 60 65 67 67 72 76 79 84 84 83 85
70 75 55 45 49 54 63 51 64 69 70 71 75 76 79 75 73 66 66 63 62 63 67 67 65 62 61 60 73 71 66 62 68 68 70 73 76 81 85 88 92 90 89 84
75 84 68 52 55 61 61 70 76 77 74 75 78 78 78 82 80 73 71 67 68 62 58 61 66 66 66 69 71 73 71 71 74 78 83 84 89 92 93 94 91 90 93 95
71 68 58 62 67 74 79 83 84 84 84 83 85 79 77 75 74 75 74 71 72 71 67 66 67 73 68 74 83 84 91 91 92 91 91 88 92 95 95 94 95 96 95 96
77 65 69 72 78 82 85 87 88 88 88 90 87 81 81 75 68 69 68 65 66 69 71 72 71 71 77 81 83 83 80 84 87 89 89 85 88 93 94 96 97 98 98 97
78 83 88 93 94 90 93 87 92 90 90 87 81 76 74 72 67 67 63 60 60 59 58 60 66 72 74 79 77 80 84 86 91 91 94 94 96 99 99 98 97 96 97 96
92 93 92 93 95 89 91 92 93 88 83 76 74 71 70 68 66 62 59 59 58 57 56 61 64 65 72 77 83 87 89 91 94 97 98 98 98 98 97 98 98 97 97 97
94 93 94 94 89 87 85 82 79 74 71 71 69 66 63 64 64 65 67 65 60 56 55 56 60 64 69 74 79 83 86 89 93 98 98 98 98 98 98 98 97 97 96 95
84 81 76 72 68 66 64 65 68 66 64 63 62 62 62 62 59 56 55 54 54 56 57 59 63 66 69 75 78 80 84 90 95 98 98 98 98 98 98 97 97 97 96 97
71 68 63 58 56 56 54 54 53 54 54 55 56 56 56 53 57 56 53 53 53 54 56 58 64 68 71 75 83 93 98 98 98 98 98 97 97 97 97 97 97 97 97 97
54 55 54 52 53 54 54 52 46 48 48 48 51 52 52 51 51 49 50 52 54 56 59 64 67 71 74 79 85 90 96 98 97 97 97 97 97 96 96 96 96 96 96 95
52 51 48 47 45 42 39 39 42 43 46 47 49 50 50 50 50 50 53 56 59 63 68 71 72 74 78 78 81 83 83 89 94 94 93 94 95 94 96 96 97 97 97 96
46 45 42 40 40 40 41 43 44 45 47 49 49 49 50 52 55 58 61 63 66 68 67 69 72 75 78 76 78 78 80 82 80 79 83 83 80 82 84 90 93 93 94 93
35 35 37 37 38 39 40 42 43 47 51 53 56 60 62 61 62 63 65 65 62 57 57 55 57 58 59 64 66 66 67 67 68 69 70 72 75 77 80 80 81 83 85 85
36 37 38 38 40 44 47 50 53 58 62 64 64 62 60 59 58 57 56 52 48 47 46 47 48 50 51 52 53 52 53 53 56 58 60 63 67 72 74 73 78 86 86 85
40 42 47 51 55 58 60 64 65 65 64 58 54 52 50 48 43 39 40 44 48 54 56 56 54 51 50 49 49 52 53 55 57 60 61 61 59 56 51 53 60 71 81 88
50 53 58 60 59 59 58 53 49 45 44 40 36 36 39 41 46 51 51 49 45 42 40 39 37 35 33 31 30 30 32 37 44 46 47 47 47 45 44 45 42 41 49 58
57 59 60 59 58 52 45 39 39 38 38 39 40 44 47 44 38 33 31 30 29 28 27 26 26 27 26 26 25 24 24 24 26 28 33 38 35 32 33 34 38 45 52 51
60 59 56 54 48 41 38 40 42 44 45 47 48 43 35 29 26 25 26 28 29 30 30 29 29 30 30 30 32 33 34 34 34 37 45 45 43 44 46 44 42 45 50 55
50 53 52 47 44 44 46 50 46 48 51 50 43 35 30 28 27 28 30 31 31 30 29 30 31 32 34 35 34 36 40 43 44 44 45 46 47 48 50 50 50 53 57 59
53 51 51 48 49 51 52 50 52 52 49 42 37 34 31 30 30 31 31 30 30 31 32 33 35 38 40 42 43 44 45 46 48 50 52 55 56 57 58 57 56 56 56 57
50 50 52 54 56 55 52 52 52 47 39 33 33 32 31 30 30 29 30 30 32 35 37 40 43 47 49 52 55 56 57 59 61 63 64 66 67 66 65 64 63 62 61 62

GFSNGP_prec_cthk_243.txt.gz
RH
38 35 31 29 31 34 37 39 43 37 30 27 27 26 24 24 26 27 28 32 34 41 40 38 40 41 48 54 56 56 57 58 57 62 63 63 63 61 59 59 58 59 63 66
46 42 40 36 32 32 34 35 33 33 33 26 25 25 27 30 32 33 36 38 39 45 47 47 47 47 50 52 54 56 57 59 62 64 66 64 63 62 63 60 57 58 60 67
54 50 50 53 38 38 36 36 37 36 29 31 33 33 35 37 37 42 46 47 46 53 56 56 54 55 56 57 59 60 60 62 64 66 68 67 66 64 62 60 59 61 65 66
67 58 63 39 36 32 35 35 35 36 37 33 31 33 38 43 46 48 54 56 57 62 62 62 59 57 58 58 58 58 59 60 61 65 68 71 73 71 69 69 69 71 77 79
73 68 52 45 42 42 39 39 38 37 35 35 38 43 48 50 53 56 60 63 64 67 67 66 64 60 60 59 59 59 58 59 60 62 64 69 67 66 67 69 75 84 85 85
83 81 65 44 41 42 46 44 39 39 45 49 49 54 59 62 65 67 71 72 70 66 62 62 62 61 59 58 60 59 59 58 59 59 61 66 68 74 74 74 83 87 92 97
80 75 63 51 48 49 55 40 48 53 58 58 59 62 65 69 70 73 80 76 73 70 68 65 64 61 60 56 55 56 59 58 56 58 58 61 65 70 76 91 93 97 98 98
77 79 64 55 53 54 49 53 56 63 63 62 62 65 70 73 74 74 76 74 71 70 72 68 63 58 56 57 55 54 55 57 60 62 65 67 71 76 77 83 91 99 97 98
66 67 63 66 65 63 64 69 72 70 68 71 74 79 83 84 86 87 82 75 73 68 63 60 60 60 57 57 57 59 58 57 58 61 64 69 75 80 82 88 92 94 98 98
68 67 70 71 73 73 78 78 79 79 82 86 89 84 81 89 86 86 80 75 74 71 67 62 58 54 54 55 56 56 59 60 61 65 66 70 77 83 89 90 89 92 96 98
77 80 79 79 81 84 85 86 86 85 86 90 88 88 89 90 85 79 75 70 68 64 62 59 55 53 55 54 55 58 61 60 62 67 70 77 82 90 91 93 97 97 98 98
82 81 86 91 88 86 87 86 86 89 89 86 84 83 83 82 80 74 67 62 59 55 50 49 48 47 49 48 51 54 61 66 70 69 70 71 72 79 87 96 99 98 97 97
92 93 91 91 88 85 84 80 79 80 82 80 78 75 69 69 66 63 60 55 53 52 51 50 49 49 50 50 53 55 60 65 70 72 80 87 89 94 98 98 98 97 97 98
88 90 89 85 81 77 75 69 69 69 68 68 65 66 66 65 64 63 59 56 54 49 48 47 46 47 47 50 52 56 60 63 72 81 87 88 94 96 96 96 97 97 97 97
83 80 79 78 75 73 68 66 68 67 67 65 63 61 60 60 59 54 48 45 45 45 46 47 49 52 54 55 59 61 65 71 75 80 86 91 94 94 93 92 92 93 93 94
77 73 70 66 65 65 64 62 59 57 53 52 51 50 50 50 48 48 48 49 49 48 49 51 53 55 56 60 63 66 69 72 75 79 80 80 84 88 91 90 92 91 90 90
64 65 63 60 56 54 51 48 47 48 48 48 47 46 45 45 45 46 49 50 50 52 53 53 55 57 59 59 60 62 65 70 71 71 72 74 76 78 80 82 85 88 88 90
58 52 50 51 52 50 48 46 45 43 43 43 42 41 44 47 49 51 53 55 56 52 49 48 48 47 46 46 47 49 51 53 56 58 62 64 65 66 70 72 75 78 83 88
55 52 50 47 43 40 38 38 39 41 41 41 44 48 50 51 50 51 51 50 48 46 44 41 41 42 44 46 48 48 49 49 50 51 52 53 54 55 55 59 66 76 80 80
44 43 39 37 36 36 38 42 44 45 47 50 50 49 48 47 45 43 40 36 36 39 43 48 48 45 43 42 43 43 44 45 46 48 50 53 56 58 57 56 53 50 58 78
39 37 36 37 39 43 47 50 50 51 49 46 43 39 35 33 34 37 43 48 47 44 40 36 33 31 29 26 24 24 25 29 34 39 43 47 50 50 50 50 48 50 50 50
38 39 40 44 48 47 47 47 44 42 41 35 31 33 36 41 45 43 37 31 28 26 24 22 21 22 23 25 25 24 23 22 21 21 23 33 40 45 44 38 31 33 36 42
44 46 47 48 49 48 46 42 40 36 33 34 37 42 42 36 28 24 22 22 21 22 24 26 27 28 30 30 29 29 31 31 30 29 28 28 32 36 36 37 38 36 35 41
50 49 51 52 50 46 41 39 36 38 40 45 47 40 32 27 24 23 25 27 28 28 28 27 27 28 29 31 31 32 36 38 43 44 45 46 46 45 46 46 46 46 46 51
53 48 47 48 43 40 38 41 46 46 46 47 42 35 28 25 24 25 26 26 26 26 27 29 30 32 35 37 39 41 43 43 43 45 46 47 49 51 54 54 53 53 56 57
49 47 50 50 47 46 48 51 47 48 50 45 36 32 29 27 27 27 25 25 26 28 30 33 36 39 43 48 50 53 55 56 57 58 59 59 60 62 62 61 59 58 57 58
48 50 51 49 50 53 52 50 51 51 44 36 32 31 28 26 24 24 25 27 29 32 34 38 43 47 52 56 59 63 67 68 70 71 71 71 71 71 70 69 67 66 65 63

GFSNGP_prec_cthk_246.txt.gz
RH
40 36 33 30 30 34 35 31 40 34 40 41 39 35 33 27 26 27 28 27 30 34 36 36 39 42 43 46 44 44 51 57 58 62 64 65 69 72 73 72 73 74 74 69
49 45 41 41 42 40 40 43 44 41 38 37 40 31 28 29 30 31 34 38 41 41 42 43 45 50 52 54 55 56 57 60 60 59 61 64 67 70 75 76 73 77 77 78
61 54 55 61 46 46 43 43 41 40 33 32 31 32 33 33 35 40 44 47 48 49 51 52 54 56 61 60 62 62 62 64 66 66 65 66 68 72 76 79 77 72 72 71
66 66 71 45 39 40 44 43 43 41 35 34 36 36 38 40 45 46 50 51 54 57 60 63 66 70 72 69 65 65 65 66 66 63 63 65 65 65 66 68 68 67 67 67
79 73 59 49 47 47 46 43 38 39 43 45 45 47 50 49 51 53 56 58 62 67 70 73 72 74 73 69 69 67 64 63 63 65 65 62 61 60 61 62 63 63 67 69
82 79 66 52 57 55 52 46 41 44 47 50 51 57 57 57 59 62 66 70 71 74 75 75 81 77 75 74 72 69 66 63 60 57 57 54 54 52 54 58 60 61 64 70
76 71 62 56 58 54 54 42 47 48 50 52 57 56 57 59 62 63 65 67 70 72 71 67 69 72 71 69 71 69 64 61 59 56 55 56 57 58 59 62 65 66 71 75
74 77 63 53 53 52 52 57 56 58 57 57 58 60 64 66 68 70 71 72 72 80 78 73 70 67 65 66 65 63 61 59 58 57 56 57 57 57 58 61 67 73 77 80
63 61 57 62 59 56 55 56 59 61 62 62 65 70 73 73 74 79 82 78 78 79 78 74 70 65 62 62 61 58 55 56 57 55 55 56 54 55 57 59 61 66 74 78
61 59 63 64 63 63 63 64 64 67 71 74 78 80 79 80 84 85 89 82 84 84 81 72 65 61 55 53 50 48 48 45 47 50 51 51 50 52 57 60 65 71 79 81
73 73 71 75 76 75 71 72 75 79 82 85 83 81 82 85 91 90 84 79 71 66 63 63 61 59 56 53 50 48 45 43 43 43 46 46 51 58 62 67 71 77 81 88
71 73 73 76 77 80 79 83 87 88 87 88 87 86 84 85 83 80 77 69 66 58 56 56 54 50 48 46 41 40 40 41 40 42 48 54 61 68 75 79 85 86 89 94
82 80 80 86 87 87 85 85 85 87 86 83 81 78 74 69 71 68 64 61 58 56 53 48 48 47 46 44 44 44 42 43 45 50 52 56 59 64 68 79 82 94 96 98
84 85 91 93 91 87 85 81 79 76 76 77 76 73 69 64 61 61 61 61 56 52 51 50 46 44 44 44 44 43 45 48 51 54 57 58 60 62 64 69 74 76 83 84
89 86 88 88 83 81 79 78 75 72 71 71 69 64 62 58 56 56 56 51 48 46 44 44 44 43 43 43 44 45 47 50 52 54 56 58 60 61 64 68 69 69 72 77
90 87 81 78 80 79 77 76 72 69 65 61 58 56 55 55 53 50 44 42 43 43 44 45 44 43 43 43 43 44 43 43 45 47 48 50 53 56 61 64 64 68 72 76
88 86 81 80 75 74 68 64 60 57 54 53 53 52 50 46 42 41 42 44 44 44 44 42 43 44 43 40 37 34 36 37 38 38 39 41 42 43 46 50 55 62 67 71
78 73 67 62 58 55 54 53 53 53 52 50 47 44 43 41 42 44 45 45 44 42 41 40 37 37 37 38 40 41 41 40 40 41 42 43 44 46 47 46 46 47 51 58
65 61 55 54 54 53 52 49 46 47 47 44 42 41 40 39 40 41 42 40 35 32 32 37 41 41 39 37 33 31 32 33 35 36 40 42 44 46 48 49 48 49 51 51
61 59 57 55 52 46 43 45 46 46 45 43 41 39 37 36 35 35 32 31 36 41 40 35 28 22 19 18 17 17 17 17 18 20 26 33 37 41 44 48 50 49 48 45
60 55 49 46 46 46 47 46 45 45 43 40 37 34 33 32 31 34 39 37 29 23 19 19 19 21 23 25 26 26 27 27 26 24 23 22 23 31 37 38 39 37 35 36
50 48 47 47 46 45 45 42 39 38 38 36 34 31 28 31 35 29 24 21 21 21 23 24 25 27 27 27 26 26 26 27 29 30 30 28 27 27 30 32 30 30 29 29
47 45 43 43 43 40 40 40 38 36 36 34 30 33 38 32 25 21 21 24 25 26 26 26 24 24 25 26 27 29 30 32 35 38 42 43 45 45 45 43 43 40 38 35
45 45 44 43 44 45 42 38 36 37 35 34 40 38 30 26 24 25 27 28 27 24 24 24 25 27 29 32 34 37 39 41 42 43 45 46 47 49 49 50 51 50 50 49
48 47 46 48 44 44 39 35 38 39 42 45 42 35 27 26 26 27 26 24 24 25 26 27 30 33 35 39 42 46 49 52 54 56 57 58 59 59 59 59 59 57 57 58
51 52 51 45 45 44 42 43 47 46 48 47 39 30 29 27 26 24 23 24 25 26 28 31 34 38 42 46 50 55 59 63 65 67 69 70 70 71 70 70 69 67 65 63
57 53 46 47 47 45 49 52 49 51 51 42 32 32 28 25 23 23 24 25 26 28 32 34 39 44 49 54 58 63 67 71 73 76 77 78 78 79 79 78 76 74 72 71

GFSNGP_prec_cthk_249.txt.gz
RH
42 37 37 34 31 33 39 32 36 29 32 29 32 36 39 40 43 45 40 30 31 32 33 34 37 39 43 45 48 50 50 51 52 56 62 65 67 68 69 70 72 76 81 83
52 46 43 41 38 36 36 38 40 38 38 36 40 41 44 45 46 46 37 35 36 37 39 41 43 46 47 49 51 56 59 60 64 65 67 71 72 72 72 74 78 79 83 88
63 60 63 66 43 42 40 39 40 42 36 42 45 45 47 46 43 39 37 39 42 44 46 47 50 53 56 57 57 60 63 65 67 68 69 71 71 70 70 70 71 73 75 80
81 76 79 50 48 42 43 45 45 41 40 43 45 48 47 46 43 42 44 47 50 51 53 54 55 58 63 66 70 68 67 65 67 68 69 70 70 68 67 66 64 66 66 70
98 88 65 54 49 53 53 45 43 46 49 53 54 53 51 51 51 53 54 55 57 58 58 61 60 59 60 64 69 80 75 71 70 70 69 66 63 62 61 58 57 56 58 61
96 99 87 42 51 54 52 54 48 48 52 58 56 54 53 54 57 60 61 61 60 62 64 63 64 63 64 64 61 68 73 68 68 64 64 65 61 59 56 56 57 57 58 61
87 97 69 55 54 55 64 45 45 51 58 59 56 54 58 60 61 62 66 66 67 68 69 72 71 69 71 70 68 67 66 66 65 64 61 58 55 53 51 51 51 51 55 55
87 91 78 58 61 59 51 56 55 58 61 62 61 63 63 65 66 68 71 73 75 74 76 75 76 74 70 68 66 64 63 59 54 52 53 53 50 46 45 44 44 46 48 49
65 61 57 57 58 57 59 61 64 61 63 65 66 67 69 71 73 78 81 80 78 79 80 83 79 71 66 66 57 55 53 52 50 46 43 41 42 42 42 43 43 44 47 51
63 59 57 63 64 64 63 63 64 66 67 70 71 73 77 79 83 87 85 82 80 81 80 74 67 63 60 54 49 46 45 44 44 43 43 43 42 41 41 41 44 50 56 61
59 62 65 67 66 67 66 67 70 72 76 82 83 85 89 89 86 86 85 82 80 74 67 62 56 52 48 44 44 45 43 42 44 43 40 41 41 43 46 53 56 59 63 68
61 63 66 71 75 76 76 75 76 78 84 88 90 92 92 90 88 82 79 74 69 63 59 53 47 45 43 42 41 40 40 40 40 40 42 44 46 49 53 53 54 56 63 65
66 72 77 77 83 83 82 82 84 87 89 90 94 90 84 83 80 79 74 70 65 61 50 45 42 41 40 38 37 38 39 39 39 40 41 42 45 46 49 52 52 52 54 57
72 76 84 86 88 88 83 87 90 92 94 91 86 84 81 78 74 70 65 60 54 48 42 40 40 40 40 40 41 40 40 40 40 41 42 43 43 45 46 48 51 54 55 56
79 83 82 84 89 90 91 93 92 85 84 83 80 76 71 68 64 59 54 49 46 44 46 46 45 43 40 38 37 36 35 34 33 32 32 32 32 34 38 40 41 43 47 53
87 87 89 92 92 90 86 81 79 79 76 75 70 68 64 59 57 53 48 47 47 47 46 43 40 40 38 35 33 31 31 32 33 34 34 35 35 35 34 33 34 37 39 44
90 93 94 95 90 90 85 80 76 75 68 62 61 59 56 52 48 47 48 48 46 43 41 40 37 33 31 32 34 35 34 33 33 33 33 34 36 37 37 38 38 38 38 36
94 92 92 88 85 81 76 71 65 60 57 57 55 52 50 50 49 48 46 44 40 35 31 29 30 34 33 28 21 17 15 15 16 19 24 28 30 31 36 40 41 40 40 41
91 88 86 80 74 66 61 58 57 56 54 52 50 48 47 45 45 42 38 32 28 26 29 28 22 16 14 15 17 19 20 21 21 21 19 18 21 30 32 36 40 42 43 42
84 78 64 61 59 59 55 53 53 52 51 48 47 46 43 40 37 32 29 26 27 26 21 17 18 19 21 22 23 23 23 23 24 24 24 23 22 21 25 31 35 37 38 35
68 64 61 58 56 56 56 56 50 48 48 46 40 36 34 31 28 28 28 25 21 19 20 22 23 24 23 21 21 22 23 24 26 29 30 31 30 28 29 30 30 30 29 27
64 63 60 56 54 52 55 53 49 44 41 38 34 28 24 23 26 26 22 20 22 24 25 24 22 22 22 22 23 25 27 29 31 33 35 39 42 43 44 45 43 43 39 36
61 58 57 57 56 54 50 47 43 39 36 33 29 25 24 28 25 20 21 25 25 24 22 21 22 23 24 26 29 32 35 38 41 43 45 46 46 47 48 50 51 51 51 49
59 59 58 55 51 47 43 42 36 34 32 28 25 29 28 23 22 24 26 25 23 21 21 22 24 26 29 32 35 39 43 47 50 54 57 59 60 61 61 61 61 60 61 62
58 58 55 54 50 45 40 38 37 37 35 34 32 28 25 24 25 25 23 22 21 22 23 25 28 31 34 37 40 44 48 52 56 60 63 66 69 70 70 70 70 69 68 68
60 58 54 51 47 45 41 40 39 40 39 37 31 27 27 26 24 21 22 22 22 24 25 28 31 34 37 41 45 50 55 59 63 67 70 72 75 76 77 77 77 77 76 73
59 55 50 50 48 45 42 41 42 41 42 35 30 29 28 23 21 21 22 23 24 26 28 31 33 37 42 46 49 53 57 62 68 72 75 78 80 81 82 83 83 82 82 81